When you browse on this site, cookies collect data to enhance your experience and personalize the content and advertising you see.
Visit our Privacy Policy to learn more. By continuing to use the site, you agree to this use of cookies and data.
  • en France
  • Liste des pays
  • À 7 jours
  • Température de l'eau
  • Carte météo
  • Widgets météo
  • user-avatar
    Se connecter

    Météo par heure à Uige

    Ce jour, 21 Février, Vendredi

    Heure Température Précipitation Vent Pression Humidité
    00:00 +21°C° 0 mm 0 m/s 689 mmHg 93%
    01:00 +21°C° 0 mm 0 m/s 689 mmHg 94%
    02:00 +20°C° 0 mm 0 m/s 689 mmHg 94%
    03:00 +20°C° 0 mm 0 m/s 689 mmHg 94%
    04:00 +22°C° 0 mm 1 m/s 688 mmHg 94%
    05:00 +23°C° 0 mm 1 m/s 689 mmHg 94%
    06:00 +23°C° 0 mm 1 m/s 689 mmHg 94%
    07:00 +24°C° 0 mm 1 m/s 690 mmHg 93%
    14:00 +32°C° 0.5 mm 1 m/s 689 mmHg 58%
    15:00 +32°C° 0.5 mm 1 m/s 689 mmHg 62%
    16:00 +31°C° 0.5 mm 1 m/s 688 mmHg 67%
    17:00 +29°C° 1.1 mm 1 m/s 688 mmHg 76%
    18:00 +26°C° 1.1 mm 1 m/s 688 mmHg 84%
    19:00 +22°C° 1.1 mm 0 m/s 688 mmHg 93%
    20:00 +22°C° 0 mm 0 m/s 689 mmHg 94%
    21:00 +22°C° 0 mm 0 m/s 689 mmHg 95%
    22:00 +21°C° 0 mm 0 m/s 690 mmHg 96%
    23:00 +21°C° 0 mm 0 m/s 690 mmHg 96%

    Demain, 22 Février, Samedi

    Heure Température Précipitation Vent Pression Humidité
    00:00 +21°C° 0 mm 0 m/s 690 mmHg 96%
    01:00 +21°C° 0 mm 0 m/s 690 mmHg 96%
    02:00 +21°C° 0 mm 0 m/s 689 mmHg 96%
    03:00 +21°C° 0 mm 0 m/s 689 mmHg 96%
    04:00 +20°C° 0 mm 0 m/s 689 mmHg 96%
    05:00 +23°C° 0.2 mm 1 m/s 689 mmHg 95%
    06:00 +23°C° 0.2 mm 1 m/s 690 mmHg 95%
    07:00 +24°C° 0.2 mm 1 m/s 691 mmHg 94%
    08:00 +26°C° 0.9 mm 1 m/s 691 mmHg 89%
    09:00 +26°C° 0.9 mm 0 m/s 691 mmHg 84%
    10:00 +27°C° 0.9 mm 0 m/s 692 mmHg 79%
    11:00 +28°C° 1.1 mm 0 m/s 691 mmHg 75%
    12:00 +30°C° 1.1 mm 1 m/s 690 mmHg 72%
    13:00 +31°C° 1.1 mm 1 m/s 690 mmHg 68%
    14:00 +30°C° 0.8 mm 1 m/s 689 mmHg 72%
    15:00 +30°C° 0.8 mm 1 m/s 689 mmHg 76%
    16:00 +29°C° 0.8 mm 1 m/s 688 mmHg 81%
    17:00 +28°C° 1.2 mm 1 m/s 689 mmHg 85%
    18:00 +26°C° 1.2 mm 1 m/s 689 mmHg 90%
    19:00 +24°C° 1.2 mm 1 m/s 689 mmHg 94%
    20:00 +24°C° 0.5 mm 1 m/s 690 mmHg 94%
    21:00 +24°C° 0.5 mm 1 m/s 690 mmHg 95%
    22:00 +21°C° 0.5 mm 0 m/s 691 mmHg 95%
    23:00 +21°C° 0 mm 0 m/s 690 mmHg 95%

    Après-demain, 23 Février, Dimanche

    Heure Température Précipitation Vent Pression Humidité
    00:00 +21°C° 0 mm 0 m/s 690 mmHg 96%
    01:00 +21°C° 0 mm 0 m/s 690 mmHg 97%
    02:00 +20°C° 0 mm 0 m/s 690 mmHg 97%
    03:00 +22°C° 0 mm 1 m/s 689 mmHg 98%
    04:00 +22°C° 0 mm 1 m/s 689 mmHg 98%
    05:00 +22°C° 0 mm 1 m/s 690 mmHg 98%
    06:00 +22°C° 0 mm 1 m/s 690 mmHg 97%
    07:00 +20°C° 0 mm 0 m/s 691 mmHg 97%
    08:00 +24°C° 0 mm 1 m/s 691 mmHg 90%
    09:00 +25°C° 0 mm 1 m/s 692 mmHg 84%
    10:00 +26°C° 0 mm 1 m/s 693 mmHg 78%
    11:00 +27°C° 0.1 mm 2 m/s 692 mmHg 77%
    12:00 +27°C° 0.1 mm 2 m/s 692 mmHg 76%
    13:00 +27°C° 0.1 mm 2 m/s 691 mmHg 75%
    14:00 +27°C° 0.4 mm 2 m/s 690 mmHg 81%
    15:00 +26°C° 0.4 mm 1 m/s 690 mmHg 87%
    16:00 +25°C° 0.4 mm 1 m/s 689 mmHg 92%
    17:00 +25°C° 0.7 mm 1 m/s 689 mmHg 93%
    18:00 +22°C° 0.7 mm 0 m/s 690 mmHg 94%
    19:00 +21°C° 0.7 mm 0 m/s 690 mmHg 94%
    20:00 +23°C° 0.2 mm 1 m/s 690 mmHg 95%
    21:00 +23°C° 0.2 mm 1 m/s 691 mmHg 96%
    22:00 +23°C° 0.2 mm 1 m/s 691 mmHg 97%
    23:00 +23°C° 0 mm 1 m/s 691 mmHg 96%

    24 Février, Lundi

    Heure Température Précipitation Vent Pression Humidité
    00:00 +23°C° 0 mm 1 m/s 691 mmHg 96%
    01:00 +23°C° 0 mm 1 m/s 690 mmHg 95%
    02:00 +23°C° 0 mm 1 m/s 690 mmHg 95%
    03:00 +22°C° 0 mm 1 m/s 690 mmHg 95%
    04:00 +20°C° 0 mm 0 m/s 689 mmHg 96%
    05:00 +20°C° 0 mm 0 m/s 690 mmHg 96%
    06:00 +20°C° 0 mm 0 m/s 690 mmHg 96%
    07:00 +20°C° 0 mm 0 m/s 691 mmHg 96%
    08:00 +24°C° 0 mm 1 m/s 691 mmHg 88%
    09:00 +26°C° 0 mm 1 m/s 692 mmHg 79%
    10:00 +28°C° 0 mm 1 m/s 693 mmHg 70%
    11:00 +29°C° 0.2 mm 2 m/s 692 mmHg 67%
    12:00 +30°C° 0.2 mm 2 m/s 692 mmHg 65%
    13:00 +30°C° 0.2 mm 2 m/s 691 mmHg 63%
    14:00 +30°C° 0.9 mm 2 m/s 691 mmHg 70%
    15:00 +29°C° 0.9 mm 2 m/s 690 mmHg 76%
    16:00 +28°C° 0.9 mm 1 m/s 689 mmHg 83%
    17:00 +27°C° 0.8 mm 1 m/s 689 mmHg 86%
    18:00 +25°C° 0.8 mm 1 m/s 690 mmHg 89%
    19:00 +22°C° 0.8 mm 0 m/s 690 mmHg 92%
    20:00 +22°C° 0 mm 0 m/s 690 mmHg 93%
    21:00 +21°C° 0 mm 0 m/s 691 mmHg 94%
    22:00 +23°C° 0 mm 1 m/s 691 mmHg 95%
    23:00 +23°C° 0 mm 1 m/s 691 mmHg 95%

    25 Février, Mardi

    Heure Température Précipitation Vent Pression Humidité
    00:00 +23°C° 0 mm 1 m/s 690 mmHg 96%
    01:00 +22°C° 0 mm 1 m/s 690 mmHg 97%
    02:00 +22°C° 0 mm 1 m/s 690 mmHg 97%
    03:00 +22°C° 0 mm 1 m/s 690 mmHg 97%
    04:00 +19°C° 0 mm 0 m/s 689 mmHg 97%
    05:00 +20°C° 0 mm 0 m/s 690 mmHg 96%
    06:00 +20°C° 0 mm 0 m/s 690 mmHg 95%
    07:00 +21°C° 0 mm 0 m/s 690 mmHg 94%
    08:00 +25°C° 0 mm 1 m/s 691 mmHg 83%
    09:00 +27°C° 0 mm 1 m/s 691 mmHg 71%
    10:00 +30°C° 0 mm 1 m/s 692 mmHg 60%
    11:00 +31°C° 0 mm 2 m/s 691 mmHg 57%
    12:00 +32°C° 0 mm 2 m/s 691 mmHg 54%
    13:00 +32°C° 0 mm 2 m/s 690 mmHg 51%
    14:00 +31°C° 0.8 mm 2 m/s 690 mmHg 59%
    15:00 +30°C° 0.8 mm 2 m/s 689 mmHg 67%
    16:00 +29°C° 0.8 mm 2 m/s 688 mmHg 75%
    17:00 +27°C° 1.4 mm 1 m/s 688 mmHg 81%
    18:00 +25°C° 1.4 mm 1 m/s 689 mmHg 88%
    19:00 +24°C° 1.4 mm 1 m/s 689 mmHg 95%
    20:00 +23°C° 0.2 mm 1 m/s 689 mmHg 95%
    21:00 +23°C° 0.2 mm 1 m/s 690 mmHg 96%
    22:00 +21°C° 0.2 mm 0 m/s 690 mmHg 96%
    23:00 +21°C° 0 mm 0 m/s 690 mmHg 97%

    26 Février, Mercredi

    Heure Température Précipitation Vent Pression Humidité
    00:00 +20°C° 0 mm 0 m/s 690 mmHg 98%
    01:00 +20°C° 0 mm 0 m/s 690 mmHg 98%
    02:00 +20°C° 0 mm 0 m/s 690 mmHg 98%
    03:00 +20°C° 0 mm 0 m/s 690 mmHg 98%
    04:00 +20°C° 0 mm 0 m/s 690 mmHg 98%
    05:00 +20°C° 0 mm 0 m/s 690 mmHg 97%
    06:00 +21°C° 0 mm 0 m/s 690 mmHg 96%
    07:00 +21°C° 0 mm 0 m/s 691 mmHg 95%
    08:00 +23°C° 0 mm 0 m/s 691 mmHg 86%
    09:00 +26°C° 0 mm 0 m/s 692 mmHg 76%
    10:00 +30°C° 0 mm 1 m/s 693 mmHg 66%
    11:00 +31°C° 0.1 mm 1 m/s 692 mmHg 62%
    12:00 +32°C° 0.1 mm 1 m/s 691 mmHg 58%
    13:00 +33°C° 0.1 mm 1 m/s 690 mmHg 54%
    14:00 +31°C° 0.8 mm 1 m/s 690 mmHg 62%
    15:00 +30°C° 0.8 mm 1 m/s 689 mmHg 70%
    16:00 +29°C° 0.8 mm 1 m/s 688 mmHg 78%
    17:00 +27°C° 1.1 mm 1 m/s 688 mmHg 83%
    18:00 +26°C° 1.1 mm 1 m/s 688 mmHg 88%
    19:00 +24°C° 1.1 mm 1 m/s 689 mmHg 93%
    20:00 +24°C° 1 mm 1 m/s 689 mmHg 95%
    21:00 +23°C° 1 mm 1 m/s 690 mmHg 96%
    22:00 +23°C° 1 mm 1 m/s 691 mmHg 98%
    23:00 +21°C° 0.5 mm 0 m/s 691 mmHg 98%
    Voir plus